Content
SEND FEEDBACK

Daily
Averages
Monthly
Summary
United States of America

DOWNIEVILLE, CALIFORNIA


Home > North America > United States > California
Elevation: 5045 feet     Latitude: 39 34N     Longitude: 120 38W

WEATHER
 
SELECT A DAY
Number of Records: 231,008;   Date Range: 1/1/95 - 7/28/14
 
SHARE

PRINT THIS DATA

[ ← Previous Day ]
WEATHER ALMANAC - FEBRUARY 11, 2013
[ Next Day → ]
[ °C ]   °F
Weather ElementAverageHighLow
Temperature37.4 °F46.9 °F (1:52 pm)28.9 °F (1:52 am)
Dewpoint12.6 °F19.9 °F (5:52 pm)9 °F (10:52 am)
Humidity37.2 %49 % (1:52 am)23 % (3:52 pm)
Barometer30.13 in30.22 in (6:52 pm)30.05 in (1:52 am)
Wind Speed4.7 mph9.2 mph (12:52 pm)
Wind Gust17.3 mph (12:52 pm)
Weather ElementAverage
Visibility10 mi
Wind DirectionNNE (30 °)

Weather ElementTotal
Precipitation---
Heating Degree Days27.1 (Base 65)
Averaged from 23 records on February 11, 2013
WEATHER CONDITIONS BREAKOUT
WIND DIRECTION BREAKOUT
WEATHER BY HOUR - FEBRUARY 11, 2013
[ °C ]   °F
Local TimeTemperatureDewpointHumidityBarometerVisibilityWind DirectionWind SpeedGust SpeedPrecipitationEventsConditions
1:52 AM28.9 °F12.0 °F49 %30.05 in10.0 miVariable4.6 mphClear
2:52 AM28.9 °F10.9 °F47 %30.05 in10.0 miVariable6.9 mphClear
3:52 AM28.9 °F12.0 °F49 %30.05 in10.0 miVariable4.6 mphClear
4:52 AM28.9 °F10.9 °F47 %30.08 in10.0 miVariable3.5 mphClear
5:52 AM28.9 °F10.9 °F47 %30.09 in10.0 miVariable5.8 mphClear
6:52 AM28.9 °F10.9 °F47 %30.12 in10.0 miVariable4.6 mphClear
7:52 AM30.0 °F10.9 °F45 %30.13 in10.0 miCalmClear
8:52 AM33.1 °F10.9 °F40 %30.14 in10.0 miVariable4.6 mphClear
9:52 AM37.0 °F10.0 °F33 %30.14 in10.0 miNE (50°)8.1 mphClear
10:52 AM41.0 °F9.0 °F27 %30.14 in10.0 miVariable6.9 mphClear
11:52 AM44.1 °F10.9 °F26 %30.12 in10.0 miVariable5.8 mphClear
12:52 PM46.0 °F12.0 °F25 %30.10 in10.0 miNE (40°)9.2 mph17.3 mphClear
1:52 PM46.9 °F14.0 °F27 %30.11 in10.0 miVariable3.5 mphClear
2:52 PM46.9 °F12.0 °F24 %30.12 in10.0 miVariable5.8 mphClear
3:52 PM46.9 °F10.9 °F23 %30.12 in10.0 miVariable6.9 mphClear
4:52 PM45.0 °F18.0 °F34 %30.15 in10.0 miCalmClear
5:52 PM39.9 °F19.9 °F45 %30.18 in10.0 miNorth (360°)3.5 mphClear
6:52 PM39.0 °F12.9 °F34 %30.22 in10.0 miVariable3.5 mphClear
7:52 PM37.9 °F14.0 °F38 %30.22 in10.0 miCalmClear
8:52 PM37.9 °F14.0 °F38 %30.21 in10.0 miNE (50°)3.5 mphClear
9:52 PM37.9 °F15.1 °F39 %30.19 in10.0 miNNE (30°)9.2 mphClear
10:52 PM37.9 °F14.0 °F38 %30.17 in10.0 miVariable3.5 mphClear
11:52 PM39.0 °F12.9 °F34 %30.17 in10.0 miSSE (160°)3.5 mphClear
Hourly data recorded from KBLU, located miles away from Downieville, California







STORIES FROM OUR PARTNERS